Location: Mohawk View
(42.7837°N, 73.7885°W)
Time: 11:57:49
(UTC+00:00)

Cosmos 1943 - Pass Details

Date: 17 June 2021
Orbit: 831 x 852 km, 71.0° (Epoch: 26 July)

Event Time Altitude Azimuth Distance (km) Brightness Sun altitude
Exits shadow 05:41:52 28° 129° (SE) 1,511 4.2 -23.0°
Maximum altitude 05:43:11 32° 104° (ESE) 1,414 4.3 -22.9°
Drops below altitude 10° 05:48:05 10° 43° (NE) 2,458 6.4 -22.8°
Sets 05:50:45 0° 34° (NE) 3,401 7.5 -22.6°
